FW0099 Weather Reports


Display with metric or nautical units.
time (UTC)temp
F
wind
direction
speed
MPH
gust
MPH
rain 1hr
in
rain 24hr
in
rain mn
in
humidity
%
barometer
mb
20260508175217 59 0.0 0.0 0.00 0.00 0.00 51 1016.2
20260508174217 59 0.0 0.0 0.00 0.00 0.00 51 1016.1
20260508173217 60 0.0 0.0 0.00 0.00 0.00 49 1016.2
20260508172217 61 0.0 0.0 0.00 0.00 0.00 50 1016.0
20260508171217 62 0.0 1.0 0.00 0.00 0.00 46 1015.9
20260508170217 62 71 0.0 2.0 0.00 0.00 0.00 47 1015.9
20260508165216 63 0.0 1.0 0.00 0.00 0.00 46 1015.7
20260508164236 63 71 0.0 7.0 0.00 0.00 0.00 44 1015.7
20260508163216 63 0.0 0.0 0.00 0.00 0.00 47 1015.6
20260508162216 63 0.0 0.0 0.00 0.00 0.00 46 1015.6
20260508161216 63 75 0.0 1.0 0.00 0.00 0.00 47 1015.8
20260508160216 63 99 0.0 10.0 0.00 0.00 0.00 46 1015.7
20260508155217 63 78 0.0 3.0 0.00 0.00 0.00 45 1015.7
20260508154216 64 69 1.0 5.0 0.00 0.00 0.00 45 1015.8
20260508153221 63 75 0.0 4.0 0.00 0.00 0.00 47 1015.9
20260508152217 64 0.0 2.0 0.00 0.00 0.00 45 1016.0
20260508151217 64 83 0.0 2.0 0.00 0.00 0.00 43 1016.1
20260508150216 65 0.0 1.0 0.00 0.00 0.00 41 1016.1
20260508145216 65 0.0 0.0 0.00 0.00 0.00 40 1016.1
20260508144236 65 0.0 0.0 0.00 0.00 0.00 41 1016.1
20260508143216 64 0.0 0.0 0.00 0.00 0.00 43 1016.1
20260508142236 64 123 2.0 5.0 0.00 0.00 0.00 45 1016.1
20260508141217 65 69 0.0 2.0 0.00 0.00 0.00 42 1016.2
20260508140216 66 76 3.0 8.0 0.00 0.00 0.00 39 1016.2
20260508135216 66 0.0 2.0 0.00 0.00 0.00 40 1016.3
20260508134216 67 0.0 0.0 0.00 0.00 0.00 40 1016.3
20260508133216 68 69 0.0 3.0 0.00 0.00 0.00 41 1016.4
20260508132216 67 70 0.0 5.0 0.00 0.00 0.00 42 1016.4
20260508131216 67 0.0 2.0 0.00 0.00 0.00 41 1016.4
20260508130216 68 71 0.0 3.0 0.00 0.00 0.00 41 1016.4
20260508125236 68 0.0 0.0 0.00 0.00 0.00 38 1016.5
20260508124216 67 0.0 0.0 0.00 0.00 0.00 36 1016.6
20260508123216 67 0.0 0.0 0.00 0.00 0.00 40 1016.6
20260508122216 66 0.0 0.0 0.00 0.00 0.00 43 1016.6
20260508121216 66 59 0.0 4.0 0.00 0.00 0.00 43 1016.6
20260508120216 66 130 0.0 1.0 0.00 0.00 0.00 42 1016.6
20260508115216 66 0.0 0.0 0.00 0.00 0.00 45 1016.5
20260508114216 67 81 0.0 3.0 0.00 0.00 0.00 44 1016.6
20260508113236 67 0.0 0.0 0.00 0.00 0.00 44 1016.6
20260508112216 67 0.0 0.0 0.00 0.00 0.00 46 1016.6
20260508111236 67 0.0 1.0 0.00 0.00 0.00 45 1016.7
20260508110216 67 0.0 0.0 0.00 0.00 0.00 45 1016.8
20260508105216 67 0.0 0.0 0.00 0.00 0.00 46 1016.7
20260508104216 67 0.0 0.0 0.00 0.00 0.00 45 1016.7
20260508103216 67 0.0 0.0 0.00 0.00 0.00 47 1016.7
20260508102216 66 0.0 0.0 0.00 0.00 0.00 52 1016.7
20260508101216 66 54 2.0 5.0 0.00 0.00 0.00 51 1016.8
20260508100216 66 92 0.0 2.0 0.00 0.00 0.00 54 1016.8
20260508095216 65 0.0 3.0 0.00 0.00 0.00 54 1017.0
20260508094216 65 0.0 0.0 0.00 0.00 0.00 55 1016.9
20260508093216 64 81 0.0 5.0 0.00 0.00 0.00 57 1016.9
20260508092236 62 0.0 0.0 0.00 0.00 0.00 61 1016.9
20260508091216 61 0.0 0.0 0.00 0.00 0.00 63 1016.9
20260508090236 60 0.0 0.0 0.00 0.00 0.00 64 1016.9
20260508085216 59 0.0 0.0 0.00 0.00 0.00 65 1016.9
20260508084216 59 0.0 3.0 0.00 0.00 0.00 67 1016.9
20260508083216 58 0.0 0.0 0.00 0.00 0.00 68 1016.9
20260508082216 58 0.0 0.0 0.00 0.00 0.00 68 1016.9
20260508081216 57 0.0 0.0 0.00 0.00 0.00 70 1016.8
20260508080216 57 0.0 0.0 0.00 0.00 0.00 71 1016.8
20260508075216 56 0.0 0.0 0.00 0.00 0.00 71 1016.7
20260508074216 56 0.0 0.0 0.00 0.00 0.00 73 1016.7
20260508073216 55 0.0 0.0 0.00 0.00 0.00 73 1016.7
20260508072236 55 72 1.0 3.0 0.00 0.00 0.00 75 1016.6
20260508071256 54 0.0 3.0 0.00 0.00 0.00 75 1016.6
20260508070216 54 75 0.0 2.0 0.00 0.00 0.00 77 1016.6
20260508065236 53 0.0 0.0 0.00 0.00 0.00 79 1016.5
20260508064216 53 0.0 3.0 0.00 0.00 0.00 81 1016.4
20260508063216 52 0.0 0.0 0.00 0.00 0.00 84 1016.4
20260508062216 51 43 0.0 3.0 0.00 0.00 0.00 86 1016.4
20260508061256 51 0.0 0.0 0.00 0.00 0.00 87 1016.3
20260508060215 50 0.0 0.0 0.00 0.00 0.00 88 1016.2
20260508055236 49 0.0 0.0 0.00 0.00 0.00 89 1016.3
20260508054216 49 0.0 0.0 0.00 0.00 0.00 89 1016.3
20260508053235 48 0.0 0.0 0.00 0.00 0.00 89 1016.2
20260508052235 48 0.0 0.0 0.00 0.00 0.00 89 1016.1
20260508051215 48 0.0 0.0 0.00 0.00 0.00 89 1016.0
20260508050215 47 0.0 0.0 0.00 0.00 0.00 89 1016.0
20260508045215 47 0.0 0.0 0.00 0.00 0.00 89 1016.0
20260508044215 47 0.0 0.0 0.00 0.00 0.00 89 1015.8
20260508043215 47 0.0 0.0 0.00 0.00 0.00 89 1015.9
20260508042215 46 0.0 0.0 0.00 0.00 0.00 88 1015.8
20260508041215 46 0.0 0.0 0.00 0.00 0.00 88 1015.8
20260508040236 46 0.0 0.0 0.00 0.00 0.00 88 1015.8
20260508035216 46 0.0 0.0 0.00 0.00 0.00 88 1015.9
20260508034215 46 0.0 0.0 0.00 0.00 0.00 88 1015.8
20260508033215 46 0.0 0.0 0.00 0.00 0.00 87 1015.7
20260508032215 46 0.0 0.0 0.00 0.00 0.00 87 1015.8
20260508031216 46 0.0 0.0 0.00 0.00 0.00 87 1015.8
20260508030235 46 0.0 0.0 0.00 0.00 0.00 86 1015.7
20260508025215 46 0.0 0.0 0.00 0.00 0.00 86 1015.8
20260508024216 46 0.0 0.0 0.00 0.00 0.00 86 1015.7
20260508023236 47 0.0 0.0 0.00 0.00 0.00 85 1015.7
20260508022215 47 0.0 0.0 0.00 0.00 0.00 85 1015.7
20260508021215 47 0.0 0.0 0.00 0.00 0.00 85 1015.7
20260508020216 48 0.0 0.0 0.00 0.00 0.00 85 1015.8
20260508015215 48 0.0 0.0 0.00 0.00 0.00 86 1015.6
20260508014216 49 0.0 0.0 0.00 0.00 0.00 86 1015.6
20260508013215 49 0.0 0.0 0.00 0.00 0.00 86 1015.6
20260508012215 49 0.0 0.0 0.00 0.00 0.00 86 1015.7
20260508011219 49 0.0 0.0 0.00 0.00 0.00 86 1015.7
20260508010235 49 0.0 0.0 0.00 0.00 0.00 86 1015.7
20260508005235 49 0.0 0.0 0.00 0.00 0.00 86 1015.8
20260508004215 49 0.0 0.0 0.00 0.00 0.00 86 1015.8
20260508003215 49 0.0 0.0 0.00 0.00 0.00 86 1015.8
20260508002215 49 0.0 0.0 0.00 0.00 0.00 86 1015.8
20260508001215 49 0.0 0.0 0.00 0.00 0.00 86 1015.9
20260508000215 49 0.0 0.0 0.00 0.00 0.00 86 1015.9
20260507235215 49 0.0 0.0 0.00 0.00 0.00 86 1015.9
20260507234255 49 0.0 0.0 0.00 0.00 0.00 86 1015.9
20260507233215 49 0.0 0.0 0.00 0.00 0.00 85 1016.0
20260507232215 49 0.0 0.0 0.00 0.00 0.00 85 1016.1
20260507231215 49 0.0 0.0 0.00 0.00 0.00 85 1016.1
20260507230235 49 0.0 0.0 0.00 0.00 0.00 84 1016.1
20260507225215 49 0.0 0.0 0.00 0.00 0.00 84 1016.0
20260507224235 50 0.0 0.0 0.00 0.00 0.00 84 1016.1
20260507223217 50 0.0 0.0 0.00 0.00 0.00 84 1016.1
20260507222217 50 0.0 0.0 0.00 0.00 0.00 84 1016.1
20260507221217 50 0.0 0.0 0.00 0.00 0.00 83 1016.0
20260507220217 50 0.0 0.0 0.00 0.00 0.00 83 1016.0
20260507215215 50 0.0 0.0 0.00 0.00 0.00 82 1015.9
20260507214215 50 0.0 0.0 0.00 0.00 0.00 83 1015.9
20260507213215 51 0.0 0.0 0.00 0.00 0.00 82 1015.8
20260507212215 51 0.0 0.0 0.00 0.00 0.00 82 1015.9
20260507211215 51 0.0 0.0 0.00 0.00 0.00 81 1015.8
20260507210215 51 0.0 0.0 0.00 0.00 0.00 80 1015.8
20260507205215 51 0.0 0.0 0.00 0.00 0.00 78 1015.7
20260507204215 51 0.0 0.0 0.00 0.00 0.00 77 1015.7
20260507203215 51 0.0 0.0 0.00 0.00 0.00 77 1015.6
20260507202215 52 0.0 0.0 0.00 0.00 0.00 75 1015.6
20260507201215 52 0.0 0.0 0.00 0.00 0.00 74 1015.5
20260507200215 52 0.0 0.0 0.00 0.00 0.00 74 1015.3
20260507195215 52 0.0 0.0 0.00 0.00 0.00 73 1015.3
20260507194217 53 0.0 0.0 0.00 0.00 0.00 72 1015.3
20260507193217 53 0.0 0.0 0.00 0.00 0.00 71 1015.1
20260507192217 53 0.0 0.0 0.00 0.00 0.00 70 1015.1
20260507191217 54 0.0 0.0 0.00 0.00 0.00 69 1015.1
20260507190217 54 0.0 0.0 0.00 0.00 0.00 68 1015.1
20260507185217 55 0.0 0.0 0.00 0.00 0.00 66 1015.1
20260507184217 55 0.0 0.0 0.00 0.00 0.00 64 1015.1
20260507183217 56 0.0 0.0 0.00 0.00 0.00 62 1015.1
20260507182217 56 0.0 0.0 0.00 0.00 0.00 62 1015.0
20260507181217 57 0.0 0.0 0.00 0.00 0.00 57 1015.0
20260507180217 57 0.0 0.0 0.00 0.00 0.00 57 1015.0